This is the latest recevied weather packets stored in our database for station/object VK6DC-13. If no packets are shown the sender has not sent any weather packets the latest 10 day(s).
| Time | Temp. | Humidity | Pressure | Rain* | Wind** | Luminosity | Snow |
|---|---|---|---|---|---|---|---|
| 1787629226 | 16.67° C | 82% | 1023.6 hPa | 0 mm | - | 251 W/m² | - |
| 1787628623 | 16.67° C | 82% | 1023.8 hPa | 0 mm | - | 144 W/m² | - |
| 1787628021 | 17.22° C | 77% | 1024 hPa | 0 mm | - | 162 W/m² | - |
| 1787627418 | 17.22° C | 76% | 1024 hPa | 0 mm | - | 195 W/m² | - |
| 1787626816 | 17.22° C | 76% | 1024 hPa | 0 mm | - | 233 W/m² | - |
| 1787626233 | 17.22° C | 76% | 1024 hPa | 0 mm | - | 159 W/m² | - |
| 1787625630 | 17.22° C | 76% | 1024 hPa | 0 mm | - | 229 W/m² | - |
| 1787625028 | 16.67° C | 76% | 1023.9 hPa | 0 mm | - | 248 W/m² | - |
| 1787624425 | 16.67° C | 76% | 1024.1 hPa | 0 mm | - | 245 W/m² | - |
| 1787623822 | 16.11° C | 77% | 1024.1 hPa | 0 mm | - | 208 W/m² | - |
| 1787623220 | 16.11° C | 77% | 1024.3 hPa | 0 mm | - | 191 W/m² | - |
| 1787622617 | 16.11° C | 77% | 1024.2 hPa | 0 mm | - | 192 W/m² | - |
| 1787622034 | 16.11° C | 78% | 1024.3 hPa | 0 mm | - | 222 W/m² | - |
| 1787621431 | 15.56° C | 78% | 1024.4 hPa | 0 mm | - | 228 W/m² | - |
| 1787620829 | 15.56° C | 78% | 1024.4 hPa | 0 mm | - | 210 W/m² | - |
| 1787620226 | 15° C | 79% | 1024.5 hPa | 0 mm | - | 290 W/m² | - |
| 1787619623 | 14.44° C | 81% | 1024.5 hPa | 0 mm | - | 209 W/m² | - |
| 1787619021 | 14.44° C | 81% | 1024.6 hPa | 0 mm | - | 111 W/m² | - |
| 1787618418 | 13.89° C | 82% | 1024.5 hPa | 0 mm | - | 106 W/m² | - |
| 1787617816 | 13.89° C | 84% | 1024.6 hPa | 0 mm | - | 105 W/m² | - |
| 1787617233 | 12.78° C | 86% | 1024.6 hPa | 0 mm | - | 143 W/m² | - |
| 1787616630 | 12.78° C | 88% | 1024.5 hPa | 0 mm | - | 80 W/m² | - |
| 1787616028 | 12.22° C | 89% | 1024.4 hPa | 0 mm | - | 73 W/m² | - |
| 1787615425 | 11.67° C | 90% | 1024.2 hPa | 0 mm | - | 72 W/m² | - |
| 1787614822 | 11.11° C | 91% | 1024.2 hPa | 0 mm | - | 42 W/m² | - |
* Rain latest hour (hover to see other rain measurements)
** Current wind speed in m/s (hover to see current wind gust speed)